Location: *
(47.8307°S, 178.3954°E)
Time: 08:23:06
(UTC+00:00)

Cosmos 1606 - Pass Details

Date: 12 August 2024
Orbit: 444 x 459 km, 82.5° (Epoch: 18 September)

Event Time Altitude Azimuth Distance (km) Brightness Sun altitude
Rises 16:57:24 0° 178° (S) 2,559 6.3 -23.2°
Reaches altitude 10° 16:59:51 10° 162° (SSE) 1,674 5.5 -22.8°
Drops below altitude 10° 17:05:43 10° 55° (NE) 1,657 6.0 -21.8°
Enters shadow 18:18:41 -33° 188° (S) 7,706 8.5 -9.6°
Maximum altitude 18:37:18 27° 270° (W) 963 3.5 -6.5°
